This is the latest recevied weather packets stored in our database for station/object KA3WVU. If no packets are shown the sender has not sent any weather packets the latest 10 day(s).
| Time | Temp. | Humidity | Pressure | Rain* | Wind** | Luminosity | Snow |
|---|---|---|---|---|---|---|---|
| 1777412685 | 9.44° C | 99% | 1015.2 hPa | 0 mm | - | 49 W/m² | - |
| 1777412383 | 9.44° C | 99% | 1015.4 hPa | 0 mm | - | 35 W/m² | - |
| 1777412078 | 9.44° C | 99% | 1015.1 hPa | 0 mm | - | 54 W/m² | - |
| 1777411773 | 9.44° C | 99% | 1015 hPa | 0 mm | - | 74 W/m² | - |
| 1777411468 | 8.89° C | 99% | 1015.1 hPa | 0 mm | - | 53 W/m² | - |
| 1777411167 | 8.89° C | 99% | 1015.1 hPa | 0 mm | - | 43 W/m² | - |
| 1777410862 | 8.89° C | 99% | 1015.1 hPa | 0 mm | - | 58 W/m² | - |
| 1777410561 | 8.89° C | 99% | 1015 hPa | 0 mm | - | 54 W/m² | - |
| 1777410261 | 8.89° C | 99% | 1015 hPa | 0 mm | - | 67 W/m² | - |
| 1777409956 | 8.89° C | 99% | 1015.1 hPa | 0 mm | - | 60 W/m² | - |
| 1777409651 | 8.89° C | 99% | 1015.4 hPa | 0 mm | - | 53 W/m² | - |
| 1777409347 | 9.44° C | 99% | 1015.2 hPa | 0 mm | - | 62 W/m² | - |
| 1777409042 | 9.44° C | 99% | 1015.2 hPa | 0 mm | - | 75 W/m² | - |
| 1777408739 | 8.89° C | 99% | 1015 hPa | 0 mm | - | 67 W/m² | - |
| 1777408435 | 8.89° C | 99% | 1015.2 hPa | 0 mm | - | 65 W/m² | - |
| 1777408130 | 8.89° C | 99% | 1015.2 hPa | 0 mm | - | 70 W/m² | - |
| 1777407826 | 8.89° C | 99% | 1015.1 hPa | 0 mm | - | 84 W/m² | - |
| 1777407523 | 8.89° C | 99% | 1015.1 hPa | 0 mm | - | 50 W/m² | - |
| 1777407222 | 8.89° C | 99% | 1015.4 hPa | 0 mm | - | 45 W/m² | - |
| 1777406918 | 8.89° C | 99% | 1015.4 hPa | 0 mm | - | 52 W/m² | - |
| 1777406613 | 8.89° C | 99% | 1015.6 hPa | 0 mm | - | 42 W/m² | - |
| 1777406309 | 8.89° C | 99% | 1015.4 hPa | 0 mm | - | 56 W/m² | - |
| 1777406008 | 8.89° C | 99% | 1015.4 hPa | 0 mm | - | 53 W/m² | - |
| 1777405705 | 8.89° C | 99% | 1015.6 hPa | 0 mm | - | 50 W/m² | - |
| 1777405401 | 8.89° C | 99% | 1015.5 hPa | 0 mm | - | 56 W/m² | - |
* Rain latest hour (hover to see other rain measurements)
** Current wind speed in m/s (hover to see current wind gust speed)